Weather History for Imperial, NE

Change the Weather History Date:

Thursday, March 13, 2014

  Actual Average Record
Temperature  
Mean Temperature 46 °F 39 °F  
Max Temperature 68 °F 53 °F 79 °F (2007)
Min Temperature 23 °F 25 °F -6 °F (1895)
Degree Days  
Heating Degree Days 20 26  
Month to date heating degree days 360  
Cooling Degree Days 0 0  
Month to date cooling degree days 0  
Year to date cooling degree days 0  
Moisture  
Dew Point 17 °F    
Average Humidity 42    
Maximum Humidity 85    
Minimum Humidity 9    
Precipitation  
Precipitation 0.00 in 0.03 in 0.48 in (1973)
Sea Level Pressure  
Sea Level Pressure 29.94 in    
Wind  
Wind Speed 8 mph (WSW)    
Max Wind Speed 16 mph    
Max Gust Speed 23 mph    
Visibility 10 miles    
Events      
T = Trace of Precipitation, MM = Missing Value Source: NWS Daily Summary

Daily Weather History Graph

Daily Weather History Graph

Search for Another Location

Airport:

Trip Planner

Search our weather history database for the weather conditions in past years. The results will help you decide how hot, cold, wet, or windy it might be!

Date:

Astronomy

Mar. 13, 2014 Rise Set
Actual Time 7:01 AM MDT 6:51 PM MDT
Civil Twilight 6:34 AM MDT 7:18 PM MDT
Nautical Twilight 6:02 AM MDT 7:50 PM MDT
Astronomical Twilight 5:30 AM MDT 8:22 PM MDT
Moon 4:18 PM MDT (3/13) 5:09 AM MDT (3/13)
Length of Visible Light 12h 44m
Length of Day
11h 49m
Waxing Gibbous, 92% of the Moon is Illuminated
Mar 13
Waxing Gibbous
Mar 16
Full
Mar 23
Last Quarter
Mar 30
New
Apr 7
First Quarter

Hourly Weather History & Observations

Time (MDT) Temp. Windchill Dew Point Humidity Pressure Visibility Wind Dir Wind Speed Gust Speed Precip Events Conditions
12:53 AM 30.9 °F 24.3 °F 21.9 °F 69% 30.18 in 10.0 mi West 6.9 mph - N/A   Clear
1:53 AM 28.9 °F 22.8 °F 21.9 °F 75% 30.17 in 10.0 mi WNW 5.8 mph - N/A   Clear
2:53 AM 26.1 °F 21.9 °F 19.9 °F 78% 30.14 in 10.0 mi West 3.5 mph - N/A   Clear
3:53 AM 26.1 °F 20.5 °F 19.9 °F 78% 30.12 in 10.0 mi West 4.6 mph - N/A   Clear
4:53 AM 24.1 °F - 18.0 °F 77% 30.12 in 10.0 mi Calm Calm - N/A   Clear
5:53 AM 23.0 °F - 19.0 °F 85% 30.11 in 10.0 mi Calm Calm - N/A   Clear
6:53 AM 23.0 °F 18.4 °F 17.1 °F 78% 30.11 in 10.0 mi WSW 3.5 mph - N/A   Clear
7:53 AM 27.0 °F 20.5 °F 19.9 °F 75% 30.09 in 10.0 mi SW 5.8 mph - N/A   Clear
8:53 AM 37.9 °F 30.5 °F 23.0 °F 55% 30.07 in 10.0 mi WSW 11.5 mph - N/A   Clear
9:53 AM 48.9 °F - 21.9 °F 35% 30.03 in 10.0 mi SW 10.4 mph - N/A   Clear
10:53 AM 55.9 °F - 15.1 °F 20% 29.98 in 10.0 mi SSW 15.0 mph - N/A   Clear
11:53 AM 61.0 °F - 12.9 °F 15% 29.94 in 10.0 mi SSW 13.8 mph 23.0 mph N/A   Clear
12:53 PM 63.0 °F - 15.1 °F 16% 29.89 in 10.0 mi SW 11.5 mph - N/A   Clear
1:53 PM 66.0 °F - 5.0 °F 9% 29.83 in 10.0 mi SSW 4.6 mph - N/A   Clear
2:53 PM 68.0 °F - 8.1 °F 10% 29.78 in 10.0 mi SSW 13.8 mph 20.7 mph N/A   Clear
3:53 PM 66.9 °F - 6.1 °F 9% 29.75 in 10.0 mi South 6.9 mph - N/A   Clear
4:53 PM 66.0 °F - 10.9 °F 12% 29.74 in 10.0 mi West 12.7 mph 20.7 mph N/A   Clear
5:53 PM 63.0 °F - 9.0 °F 12% 29.74 in 10.0 mi West 9.2 mph - N/A   Clear
6:53 PM 57.0 °F - 16.0 °F 20% 29.77 in 10.0 mi WNW 10.4 mph - N/A   Clear
7:53 PM 51.1 °F - 17.1 °F 26% 29.77 in 10.0 mi West 8.1 mph - N/A   Clear
8:53 PM 48.9 °F - 18.0 °F 29% 29.77 in 10.0 mi West 15.0 mph - N/A   Clear
9:53 PM 46.0 °F 41.4 °F 21.0 °F 37% 29.76 in 10.0 mi WNW 9.2 mph - N/A   Clear
10:53 PM 45.0 °F 38.2 °F 23.0 °F 42% 29.77 in 10.0 mi WNW 15.0 mph - N/A   Clear
11:53 PM 39.9 °F 31.4 °F 25.0 °F 55% 29.82 in 10.0 mi NNW 16.1 mph - N/A   Clear